Location: Julian California
(33.0790°N, 116.6010°W)
Time: 05:18:34
(UTC-08:00)

Daily predictions for brighter satellites

Satellite Brightness Start Highest point End
(mag) Time Altitude Azimuth Time Altitude Azimuth Time Altitude Azimuth
CZ-3 R/B 4.4 01:01:48 10° W 02:21:09 57° SSE 02:30:32 10° SE
SL-16 R/B 4.5 03:26:35 20° E 03:26:35 20° E 03:29:23 10° ESE
DELTA 2 R/B (1) 4.2 04:16:47 52° ENE 04:16:47 52° ENE 04:20:57 10° ENE
OAO 2 Rocket 4.1 04:23:05 47° E 04:23:05 47° E 04:26:37 10° E
ISS -0.1 04:25:01 14° ESE 04:25:01 14° ESE 04:25:37 10° ESE
Tsikada Rocket 3.9 04:33:43 70° SW 04:33:43 70° SW 04:39:30 10° S
CZ-3 Stage 3 1.9 04:44:37 64° SSW 04:44:47 65° S 04:55:17 10° ESE
Cosmos 2151 3.7 04:46:07 26° NNE 04:48:16 52° E 04:52:24 10° SSE
Thor Agena Rocket 3.5 04:46:16 10° S 04:51:26 63° WSW 04:51:34 63° W
Cosmos 2227 4.0 04:52:51 24° SSW 04:56:17 72° WNW 05:01:54 10° NNE
Tiangong 2 2.8 04:58:24 28° NE 04:58:24 28° NE 05:00:02 10° NE
BREEZE-M DEB (TANK) 3.7 04:59:00 39° SSW 04:59:00 39° SSW 05:01:06 10° SSE
ATLAS 3B CENTAUR R/B 4.0 04:55:55 15° SSW 04:59:58 35° SE 05:11:17 10° E
Cosmos 1328 3.7 05:02:00 67° SW 05:02:00 67° SW 05:05:36 10° S
CZ-4 R/B 4.4 04:59:30 10° NE 05:02:16 17° E 05:05:03 10° SE
Milstar 3 Cent rocket 4.2 04:53:08 10° SW 05:02:27 34° SSE 05:07:49 10° ESE
Cosmos 773 Rocket 4.5 05:00:02 11° N 05:05:05 61° ENE 05:10:18 10° SSE
COSMO-SKYMED 1 2.5 05:03:42 10° SSE 05:08:01 82° ENE 05:11:40 14° N
USA 229 DEB 4.1 05:05:56 36° WNW 05:08:06 45° WSW 05:14:54 10° S
USA 229 4.1 05:05:58 35° WNW 05:08:13 45° WSW 05:15:01 10° S
SL-16 R/B 2.5 05:08:32 40° W 05:09:18 43° WSW 05:14:36 10° S
Meteor 1-28 Rocket 3.6 05:13:36 10° SSE 05:17:18 62° ENE 05:21:00 10° N
Cosmos 1626 3.9 05:15:32 10° NNE 05:18:56 33° E 05:22:19 10° SE
NOAA 6 4.3 05:14:24 10° N 05:19:17 43° WNW 05:24:09 10° SW
NOSS 3-1 (A) 4.3 05:14:16 10° NNW 05:22:07 74° ENE 05:30:33 10° SE
Cosmos 1703 4.0 05:18:24 10° N 05:22:15 53° E 05:26:06 10° SSE
Coronas F rocket 4.4 05:21:29 10° NE 05:22:39 13° ENE 05:23:48 10° ESE
EP 2 4.1 05:23:43 72° N 05:23:43 72° N 05:26:07 10° NNE
Cosmos 1500 Rocket 4.2 05:24:00 33° W 05:24:00 33° W 05:27:52 10° SSW
ERBS 2.2 05:27:39 42° WNW 05:28:36 67° SW 05:31:58 10° SSE
APEX 4.4 05:25:06 10° S 05:29:10 43° ESE 05:32:26 10° NE
Cosmos 1777 Rocket 4.5 05:24:51 10° SW 05:29:37 36° WNW 05:34:24 10° N
Sich 1 4.0 05:30:59 10° N 05:35:10 47° E 05:39:18 10° SSE
Gbstr 26 Del rocket 3.6 05:32:02 10° SW 05:37:03 77° NW 05:43:26 10° NE
Cosmos 1633 Rocket 4.0 05:37:42 10° N 05:41:55 50° E 05:46:06 10° SSE
Cosmos 1340 Rocket 3.3 05:41:48 13° NNW 05:44:59 37° W 05:48:39 10° SSW
Cosmos 2058 3.4 05:41:36 10° NNW 05:45:26 37° W 05:49:16 10° SSW
SL-14 R/B 4.4 05:45:44 19° WNW 05:47:18 24° W 05:50:34 10° SW
Cosmos 1943 3.8 05:43:55 10° NNW 05:49:33 61° ENE 05:55:08 10° SSE
CZ-2C R/B 2.7 05:46:00 10° NNE 05:50:33 65° E 05:55:05 10° S
GPS 2-05 Rocket1 2.8 05:49:01 22° WNW 05:50:53 60° N 05:54:09 10° E
Cosmos 2034 Rocket 4.1 05:52:06 10° SSW 05:58:05 53° W 06:04:11 10° N
ISS -1.3 05:57:42 13° WSW 05:58:51 15° SW 06:00:47 10° SSW
NOSS 3-1 (C) 4.4 05:53:49 10° NW 06:01:22 51° WSW 06:09:26 10° S
Cosmos 2344 3.6 05:54:05 10° SW 06:01:46 72° WNW 06:10:02 10° NNE
DELTA 2 R/B (1) 4.1 05:57:35 14° WNW 06:02:09 45° N 06:07:29 10° ENE
CSL-04 Debris 4.3 05:57:35 10° N 06:02:54 53° WNW 06:08:09 10° SSW
Cosmos 2221 3.7 05:59:47 10° SW 06:03:05 21° WNW 06:06:24 10° NNW
Nadezhda 4 Rocket 4.1 05:57:09 10° N 06:03:29 89° E 06:09:44 10° S
YAOGAN 1 2.9 06:00:32 10° NNE 06:04:50 70° E 06:09:08 10° S
Cosmos 2263 Rocket 2.2 06:00:44 10° SSW 06:06:18 61° WNW 06:11:57 10° NNE
OAO 2 Rocket 3.8 06:02:03 12° W 06:06:23 48° SSW 06:11:06 10° SE
Cosmos 1356 Rocket 3.8 06:03:32 10° NNW 06:07:26 41° W 06:11:22 10° SSW
Ariane Rocket 3.7 06:03:56 10° N 06:08:20 30° WNW 06:12:44 10° SW
Helios 1B rocket 3.7 06:05:21 10° SE 06:09:13 42° ENE 06:13:06 10° N
Cosmos 1908 3.4 06:06:27 10° SSW 06:10:07 46° W 06:13:48 10° N
ATLAS 2A CENTAUR R/B 4.3 05:55:13 10° W 06:11:26 39° SSW 06:15:44 10° SE
Cosmos 923 Rocket 4.4 06:06:50 10° NNW 06:11:47 44° WSW 06:16:44 10° S
Cosmos 1603 4.4 06:08:38 10° NW 06:13:38 34° WSW 06:18:39 10° SSW
Cosmos 1726 3.4 06:10:33 10° SSE 06:14:03 46° E 06:17:36 10° NNE
IDEFIX/ARIANE 42P 2.6 06:09:04 10° N 06:14:18 70° WNW 06:19:31 10° SSW
Cosmos 1666 Rocket 3.9 06:11:35 10° NNW 06:15:52 47° W 06:20:09 10° SSW
Cosmos 1898 Rocket 3.5 06:12:12 10° SSW 06:17:24 69° WNW 06:22:41 10° NNE
SJ-7 4.3 06:14:08 10° N 06:18:08 69° WNW 06:22:11 10° SSW
Cosmos 1680 Rocket 3.8 06:14:16 10° NNW 06:19:23 50° WSW 06:24:29 10° S
Cosmos 1092 Rocket 4.1 06:17:05 10° N 06:23:22 88° W 06:29:33 10° S
Cosmos 2150 Rocket 4.1 06:20:37 10° SSW 06:26:01 71° WNW 06:31:24 10° NNE
